Location: Corralito
(10.2667°N, 66.9500°W)
Time: 03:14:14
(UTC+00:00)

Haruka - Pass Details

Date: 05 December 2023
Orbit: 529 x 21178 km, 31.2° (Epoch: 21 February)

Event Time Altitude Azimuth Distance (km) Brightness Sun altitude
Rises 23:49:14 0° 286° (WNW) 14,488 10.3 -24.8°
Reaches altitude 10° 00:03:53 10° 279° (W) 16,153 10.4 -28.2°
Maximum altitude 01:26:04 24° 255° (WSW) 23,338 10.8 -47.2°
Drops below altitude 10° 04:53:52 10° 152° (SSE) 6,249 7.7 -75.2°
Sets 04:58:47 0° 134° (SE) 5,889 7.8 -74.5°
